CAPE
19 18 22 23 22 19 23 24 16 15 17 9 2 0 1 4 4 2 0 0 0 0 0 0 0 0 0 0 0 0 0 0 3 24 5 20 53 89 153 185 49 72 134 24 0 14 1 182 242 37 269 18 83 122
29 27 27 20 20 26 30 22 18 18 12 22 11 0 0 2 2 0 0 0 0 0 0 0 0 0 0 0 0 0 0 120 2 62 100 61 73 64 101 6 29 136 91 1 237 250 148 282 333 107 92 85 4 8
22 29 30 8 18 19 27 28 21 20 23 19 20 5 0 2 4 2 1 0 0 0 0 0 0 0 0 0 0 0 0 0 0 0 3 244 347 397 321 267 234 276 50 188 4 0 0 5 14 19 30 10 0 0
17 24 25 12 15 18 24 27 18 17 20 13 20 13 0 0 1 4 2 0 0 0 0 0 0 0 0 0 0 0 0 0 0 0 0 24 166 188 188 123 0 69 5 1 67 5 9 2 0 0 2 0 0 0
13 9 20 16 16 12 22 19 9 14 20 13 16 17 0 0 0 0 2 0 0 0 0 0 0 0 0 0 0 0 0 0 0 0 0 0 0 0 0 0 14 59 69 97 57 0 29 0 0 0 0 0 0 0
6 7 7 20 20 8 16 24 18 11 12 10 19 10 0 0 0 2 7 4 4 1 0 0 0 0 0 0 0 0 0 0 0 0 0 0 0 0 0 0 0 109 93 1 0 0 0 0 0 0 0 0 0 0
3 4 9 12 18 10 12 23 9 3 11 6 18 4 0 0 1 7 1 0 0 0 0 0 0 0 0 0 0 0 0 0 0 0 0 0 0 0 0 0 0 0 0 0 0 0 0 0 0 0 0 0 0 0
0 4 5 4 12 9 13 10 7 6 7 7 21 0 0 0 0 1 0 0 0 0 0 0 0 0 0 0 0 0 0 0 0 0 0 0 0 0 0 0 0 0 0 0 0 0 0 0 0 0 0 0 0 0
0 0 6 2 7 6 6 2 4 5 2 11 6 0 2 0 14 1 0 0 0 0 1 0 2 23 0 0 5 0 0 0 0 0 0 0 0 0 0 0 0 0 0 0 0 0 0 0 0 0 0 0 0 0
0 1 6 1 3 5 6 3 1 0 4 7 2 14 7 23 0 0 0 3 0 0 0 0 0 0 0 0 0 0 0 0 0 0 0 0 0 0 0 0 0 0 0 0 0 0 0 0 0 0 0 0 0 0
7 3 5 1 2 7 4 0 0 4 1 6 13 17 18 0 4 9 16 6 4 0 0 0 0 1 0 0 11 0 0 0 0 0 0 0 27 22 7 9 0 0 0 0 0 0 0 0 0 0 0 0 0 0
5 1 4 3 3 4 5 1 0 3 24 11 5 21 14 10 12 9 3 1 7 0 0 0 0 0 0 0 0 0 0 0 0 1 0 0 151 113 38 13 0 0 0 0 0 0 0 0 0 0 0 0 0 0
7 4 2 3 3 8 2 1 0 4 9 10 11 11 22 21 1 0 0 1 3 0 0 9 0 0 0 0 0 0 0 0 0 0 0 141 23 0 2 5 0 0 0 0 0 0 0 0 0 0 0 0 0 0
1 2 1 4 4 2 2 0 2 1 2 7 6 0 9 0 0 0 11 23 8 27 18 23 8 28 18 0 13 11 11 1 5 0 26 8 2 4 1 0 0 0 0 0 1 5 12 17 14 1 0 0 10 57
1 1 5 4 2 2 1 0 0 19 21 18 11 0 6 12 9 3 8 12 3 9 6 1 13 5 13 6 8 12 4 0 0 27 2 0 0 1 4 5 4 3 3 8 18 23 21 19 35 19 61 377 372 235
3 4 11 0 0 0 0 0 2 7 41 6 1 6 38 35 29 8 2 12 9 1 3 17 20 15 23 15 4 6 1 10 8 1 0 0 0 6 5 9 11 20 7 8 27 89 117 120 107 158 381 488 522 433
8 11 0 0 0 0 0 10 49 39 13 2 4 5 54 76 27 25 24 10 22 15 16 34 17 2 17 10 0 1 47 3 2 1 0 0 1 0 10 2 12 2 2 12 40 17 16 62 23 46 32 99 248 321
10 3 0 0 1 1 17 47 58 14 8 1 12 33 6 18 32 33 34 20 27 24 28 32 43 13 21 16 31 5 5 4 0 0 4 0 85 33 0 4 7 11 12 38 36 0 0 0 37 6 111 399 313 361
14 4 0 6 12 44 33 21 15 6 16 17 21 34 14 10 19 26 30 32 36 40 41 25 13 24 30 44 15 12 5 8 2 0 0 0 45 50 21 25 40 59 9 0 1 3 1 6 10 24 25 25 24 46
0 0 0 0 0 47 27 7 16 32 24 32 32 36 17 19 23 21 23 27 21 13 9 3 11 25 26 16 1 3 6 15 12 0 0 7 13 45 57 36 15 33 20 13 4 2 12 12 9 9 9 4 2 20
0 0 0 0 7 32 34 21 15 14 28 13 36 21 36 24 16 6 7 7 2 4 4 16 20 2 0 1 0 11 28 75 62 60 52 31 10 13 19 23 21 16 14 3 2 0 2 16 6 9 13 5 19 28
0 0 3 1 19 11 3 27 18 7 6 7 6 14 29 24 15 25 24 21 13 7 7 0 0 6 10 10 28 47 41 34 28 72 16 2 24 1 28 15 34 16 16 5 6 14 7 12 1 0 0 6 2 11
3 2 0 3 1 0 0 1 9 6 2 2 5 12 11 17 6 0 2 4 0 0 0 0 0 0 3 38 32 0 33 193 66 56 19 25 20 12 13 23 20 21 18 0 0 0 0 0 1 0 0 0 0 2
9 6 3 2 2 1 1 2 1 2 2 1 1 0 0 3 1 2 1 0 0 22 75 86 46 25 6 6 15 44 94 31 24 36 39 47 25 20 18 26 19 19 6 0 0 0 0 0 0 0 2 4 3 3
0 2 0 0 1 1 2 2 2 0 0 1 0 1 0 1 2 3 0 7 4 0 1 14 18 26 19 19 46 64 49 47 26 22 19 9 6 0 0 4 0 2 7 20 13 7 4 3 0 0 0 0 0 0
0 1 0 7 0 2 1 9 0 4 15 10 27 30 0 15 15 7 21 28 40 20 29 50 57 29 15 31 25 29 20 2 1 8 4 10 8 4 1 2 6 5 3 1 0 0 0 0 2 5 7 3 3 0
32 31 67 258 184 139 160 210 165 72 45 24 21 7 7 13 2 17 43 57 38 10 5 15 11 19 21 12 6 11 23 20 15 11 9 0 0 0 0 1 0 0 0 0 0 3 3 4 6 8 8 8 10 14
159 46 25 45 30 35 25 16 11 16 22 25 18 8 5 8 18 23 30 26 13 30 41 46 40 34 39 36 26 15 9 2 5 0 0 0 0 0 0 0 0 0 0 0 0 0 0 0 0 0 0 2 10 11
25 44 45 58 49 43 35 27 29 28 31 19 7 9 14 19 29 29 58 56 47 24 21 21 24 14 12 9 4 0 0 0 0 0 0 0 0 0 0 0 0 0 0 0 0 0 0 0 0 0 0 0 0 5
48 29 38 50 46 30 45 39 39 27 28 15 19 24 34 45 43 29 18 30 35 26 6 10 13 5 1 0 0 0 0 0 0 0 0 0 0 0 0 0 0 0 0 0 0 0 0 0 0 0 0 6 4 0
42 41 37 42 49 63 50 55 49 44 36 31 34 26 13 20 22 30 27 21 12 16 0 0 0 0 0 0 0 0 0 0 0 0 0 0 0 0 0 0 0 0 0 0 0 0 0 0 0 0 1 4 0 0
51 56 64 31 57 79 88 57 68 44 45 15 37 39 48 46 38 3 19 19 8 6 4 1 0 0 0 0 0 0 0 0 0 0 0 0 0 0 0 0 0 0 0 0 0 0 0 0 0 0 13 0 0 3
186 107 205 143 99 117 70 101 102 124 88 61 61 66 47 72 62 36 14 8 3 3 9 0 0 0 0 0 0 0 0 0 0 0 0 0 0 0 0 0 0 0 0 0 0 0 0 0 0 1 6 2 2 3
CIN
-2 -3 -1 0 0 0 -1 0 -3 -7 -6 -5 -3 0 0 0 0 -1 0 0 0 0 0 0 0 0 0 0 0 0 0 0 -27 -64 -41 -36 -14 -10 -9 -16 -67 -59 -15 -80 0 -5 -2 -37 -47 -44 -9 -117 -60 -46
0 0 0 0 -2 0 0 -1 -2 -4 -5 -7 -2 0 0 0 0 0 0 0 0 0 0 0 0 0 0 0 0 0 0 -86 -38 -81 -28 -17 -18 -6 -3 -11 -48 -7 -65 -98 -18 -124 -198 -66 -118 -96 -49 -85 -54 -52
0 0 0 -3 -2 -2 0 0 0 -2 -1 -1 0 -4 0 0 0 0 -1 0 0 0 0 0 0 0 0 0 0 0 0 0 0 0 -91 -81 -39 -18 -15 -15 -50 -32 -118 -31 -114 0 0 -2 -151 -212 -222 -160 0 -10
-2 -1 0 -2 0 -1 0 0 0 0 -1 -2 0 -1 0 0 0 0 0 0 0 0 0 0 0 0 0 0 0 0 0 0 0 0 0 -102 -49 -56 -72 -94 0 -40 -136 -13 -44 -107 -6 -29 0 0 -128 0 0 0
-3 -5 -3 -2 -1 -1 0 0 0 0 0 -1 -1 0 0 0 0 0 -1 -1 0 0 0 0 0 0 0 0 0 0 0 0 0 0 0 0 0 0 0 0 -37 -16 -17 -7 -78 0 -32 0 0 0 0 0 0 0
-2 -4 -3 0 0 -1 -1 0 0 -1 -1 -6 -2 -3 0 0 0 -1 -2 -1 -2 -2 0 0 0 0 0 0 0 0 0 0 0 0 0 0 0 0 0 0 0 -7 -80 -3 0 0 0 0 0 0 0 0 0 0
-8 -5 -4 -7 -2 -5 -4 0 -6 -10 -4 -7 -2 -9 0 0 -2 -1 0 -1 0 0 0 0 0 0 0 0 0 0 0 0 0 0 0 0 0 0 0 0 0 0 0 0 0 0 0 0 0 0 0 0 0 0
-4 -7 -4 -8 -12 -5 -6 -6 -5 -13 -7 -7 -1 -1 0 0 0 -1 0 0 0 0 0 0 0 0 0 0 0 0 0 0 0 0 0 0 0 0 0 0 0 0 0 0 0 0 0 0 0 0 0 0 0 0
-10 0 -5 -8 -16 -5 -4 -4 -7 -25 -9 -6 -2 0 -1 -1 0 -3 0 0 0 0 -1 0 -7 -3 0 0 -1 0 0 0 0 0 0 0 0 0 0 0 0 0 0 0 0 0 0 0 0 0 0 0 0 0
-1 -3 -7 -6 -6 -6 -7 -4 -4 -1 -5 -2 -1 0 0 -1 0 0 0 -2 0 0 0 0 0 0 0 0 0 0 0 0 0 0 0 0 0 0 0 0 -1 0 0 0 0 0 0 0 0 0 0 0 0 0
-5 -3 -6 -3 -7 -7 -7 -2 0 -5 -5 -1 0 0 -4 0 -2 -2 0 -1 -1 0 0 0 0 -1 0 0 -8 0 0 0 0 0 0 -1 -6 -26 -25 -35 0 0 0 0 0 0 0 0 0 0 0 0 0 0
-1 -2 -5 -10 -11 -11 -7 -10 -5 -2 -2 -5 -1 -8 -4 -1 -1 -1 -2 -3 -4 0 0 0 0 0 0 0 0 0 0 0 0 -8 0 0 -7 -7 -28 -75 0 0 0 0 0 0 0 0 0 0 0 0 0 0
-5 -1 -3 -9 -10 -5 -8 -7 0 -7 -11 -2 -1 -2 0 -1 0 0 0 -2 -3 -1 -4 -2 0 0 0 0 0 0 0 0 0 0 0 -8 -10 0 -70 -146 0 0 0 0 0 0 0 0 0 0 0 0 0 0
-5 -3 -4 -9 -8 -8 -8 -3 -8 -8 -6 0 0 0 -1 0 0 0 -5 -7 -10 -3 -2 -2 -4 -5 -5 0 -3 -2 -4 -1 -1 -1 -9 -5 0 0 -1 0 0 0 0 0 -1 -1 -1 -2 -1 -1 0 0 -39 -12
-6 -3 -4 -7 -16 -11 -10 -4 0 -3 -1 0 -1 0 -2 -3 -6 -9 -8 -3 -11 -5 -5 -2 -4 -4 -3 -6 -3 -11 -1 0 0 -5 -3 -3 0 -1 -1 -1 -1 -1 -1 0 -1 -1 0 -2 -1 -5 -14 -4 -26 -9
-4 -8 -2 -2 -3 0 0 0 -1 -9 -1 -11 -1 -7 -4 -3 -11 -3 -4 -2 -2 -4 -8 -3 -2 -5 -2 -3 -2 -2 -1 -7 -5 -1 -1 0 0 0 0 -1 0 -1 -1 0 -31 -1 -3 -8 -2 -3 -5 -6 -31 -33
-5 0 -1 0 0 0 0 -4 -1 0 -7 -2 -3 -4 -1 -3 -9 -11 -2 -4 -4 -4 -4 -1 -1 -2 -3 -1 0 -1 -3 -2 0 -1 -1 0 -106 0 -22 -32 -9 -42 -35 -9 -12 -21 -13 -11 -46 -33 -31 -36 -17 -30
-1 -1 0 -2 -1 -1 0 -2 -1 -1 -5 -9 -3 -2 -25 -42 -7 -7 -2 -2 -1 -2 -3 -3 -1 -1 -1 -1 -2 -10 -1 -1 0 -1 -1 -1 -9 -5 0 -21 -24 -21 -16 -11 -17 0 0 -3 -14 -19 -21 -1 -2 -5
-1 -2 0 -10 -2 -2 0 -1 -1 -4 -2 -6 -17 -8 -3 -2 -3 -1 -1 -1 -3 0 -4 -1 -1 -2 -3 -5 -2 -2 -1 -1 -2 0 0 0 -18 -12 -16 -13 -16 -5 -27 -6 -1 -8 -15 -24 -17 -8 -12 -13 -14 -15
0 0 0 0 0 -1 0 -1 -1 -1 -1 -2 -3 -2 -2 -2 -2 -1 -2 -1 -1 -5 -1 -4 -2 -3 -2 -4 -1 -2 -1 -2 -10 0 0 -4 0 -2 -10 -4 -1 -2 -2 -1 -4 -9 -2 -10 -6 -7 -14 -22 -27 -13
-4 0 0 0 -1 0 -12 0 -1 -2 -1 -1 -1 -3 -1 -2 -1 -2 -2 -2 -1 -2 -1 -1 0 -6 0 -5 -2 0 -5 -1 -1 0 -3 -5 -3 -14 -5 -6 0 -3 -2 -10 -3 -2 -25 -1 -2 -1 -1 -2 -2 -17
-4 0 -1 -5 0 0 0 0 0 -1 0 0 -1 -1 0 -1 0 -3 -11 -1 -1 -1 -2 0 0 -1 -1 -2 -3 -6 -13 -17 -17 -9 -31 -2 -4 -7 -3 -16 -1 -1 -1 -2 -5 -2 -2 -4 -3 0 0 -2 -6 -2
-3 -1 -3 0 -1 0 0 0 0 0 0 0 0 0 0 0 0 0 0 0 0 0 0 0 0 0 -5 -2 -6 -2 -28 -2 -11 -14 -26 -12 -27 -20 -3 -2 -3 -2 -3 -1 0 0 0 0 -4 0 0 0 0 -2
-2 0 0 0 0 0 0 0 0 0 0 0 0 0 0 0 0 0 0 0 0 -2 -1 -1 -11 -9 -24 -39 -27 -22 -6 -19 -17 -4 -2 -2 -1 -1 -2 -3 -2 -3 -4 0 0 0 0 0 0 0 -2 -4 -2 -2
0 0 0 0 0 0 0 0 0 0 0 0 0 0 0 0 0 0 0 -2 -11 0 -5 -32 -26 -23 -11 -12 -2 -4 -10 -2 -2 -1 -2 -10 -4 0 -5 -3 0 -4 -4 -4 -4 -3 -2 -4 -1 0 0 0 0 0
0 -16 0 -1 0 0 -1 -2 -2 -1 -2 -1 -2 -2 -1 -12 -2 -2 -9 -16 -15 -17 -26 -10 -2 -3 -8 -1 -3 -2 -2 -2 -1 -2 -2 -5 -3 -2 -3 -2 -3 -3 -4 -5 0 0 0 0 -4 -3 -3 -3 -6 -4
-3 -5 -22 -18 -3 -6 -6 -3 -1 -3 -3 -3 -5 -7 -4 -1 -2 -6 -7 -1 -3 -6 -10 -3 -5 -4 -3 -2 -3 -6 -5 -4 -3 -2 -3 0 0 -4 -4 -4 -4 0 0 0 -1 -3 -2 -1 -3 -2 -2 -2 -2 -3
-3 -6 -2 -3 -3 -3 -4 -4 -5 -5 -4 -3 -3 -4 -8 -6 -3 -1 -5 -7 -15 -6 -4 -4 -3 -4 -3 -2 -5 -5 -4 -6 -7 -1 0 0 0 0 0 0 0 0 0 0 0 0 0 0 0 0 0 -27 -17 -5
-7 -3 -3 -3 -3 -5 -3 -3 -4 -4 -6 -3 -3 -3 -3 -4 -2 -1 -2 -3 -4 -3 -2 -3 -5 -7 -6 -5 -4 0 0 -2 0 0 0 0 0 0 0 0 0 0 0 0 0 0 0 0 0 0 0 0 0 -2
-12 -5 -3 -2 -4 -7 -3 -4 -4 -4 -3 -4 -4 -3 -4 -3 -3 -5 -7 -4 -2 -2 -4 -3 -3 -5 -3 -1 0 0 0 0 0 0 0 0 0 0 0 0 0 0 0 0 0 0 0 0 0 0 0 -5 -11 -7
-9 -3 -2 -2 -2 -2 -5 -4 -3 -4 -4 -5 -4 -6 -5 -4 -3 -2 -4 -5 -3 -4 0 -1 -1 0 0 0 0 0 0 0 0 0 0 0 0 0 0 0 0 0 0 0 0 0 0 0 0 0 -2 -19 0 0
-21 -8 -2 -25 -15 -4 -3 -2 -2 -5 -8 -38 -3 -6 -3 -4 -1 -2 -1 -2 -3 -3 -8 -4 0 0 0 0 0 0 0 0 0 0 0 0 0 0 0 0 0 0 0 0 0 0 0 0 0 0 -3 0 -2 -1
-4 -15 -2 -1 -2 -3 -2 -2 -3 -8 -2 -10 -4 -4 -4 -3 -4 -1 -6 -2 -1 -3 -4 0 0 0 0 0 0 0 0 0 0 0 0 0 0 0 0 0 0 0 0 -2 0 0 0 0 0 -2 -3 -1 -1 -2
Wind_Speed
31 31 30 29 29 29 30 31 31 32 32 31 31 30 29 28 27 24 26 22 22 26 32 26 26 26 26 24 26 23 25 25 29 35 38 38 36 36 38 35 33 42 33 38 37 36 37 31 13 17 10 9 13 15
30 30 30 30 29 27 28 29 30 31 31 31 30 30 28 27 26 24 26 23 24 28 28 28 28 26 27 27 27 26 25 20 21 25 27 33 39 37 33 42 33 31 25 28 26 18 25 14 5 3 9 11 15 17
30 29 31 31 29 25 27 28 29 30 29 29 29 28 28 27 26 24 27 26 27 27 30 29 24 20 21 23 24 26 20 22 22 21 25 26 28 26 27 19 30 21 18 22 22 18 17 23 9 15 18 19 20 20
26 29 30 28 27 26 26 26 27 28 27 27 27 27 27 27 26 25 25 24 24 24 24 15 15 19 21 23 23 25 27 25 27 27 26 27 27 21 29 21 24 26 19 29 25 17 18 8 13 17 20 21 22 25
18 25 27 26 26 27 26 26 27 28 27 26 26 25 25 26 26 26 26 25 21 21 22 22 22 13 16 19 19 20 23 24 25 26 26 28 26 28 28 27 25 21 16 12 12 18 18 19 18 17 21 24 25 27
11 12 22 23 25 27 27 26 26 27 26 25 25 24 24 24 23 22 18 16 19 20 22 21 13 16 15 16 18 19 20 21 22 21 24 23 19 25 31 31 25 18 18 20 19 19 21 25 23 21 25 28 29 30
12 5 3 13 25 25 26 25 27 27 26 24 24 23 23 23 22 20 20 20 21 21 21 22 18 14 17 16 14 16 17 19 19 21 23 24 23 23 29 36 29 26 22 21 23 26 29 29 31 30 31 33 34 34
25 24 29 14 21 15 25 25 26 26 24 23 23 22 22 22 23 21 21 23 22 20 21 20 19 16 15 16 13 14 15 16 17 18 17 19 16 19 24 22 24 26 27 27 27 26 27 29 32 34 35 35 34 33
7 23 13 7 10 13 19 18 21 22 21 20 20 20 19 18 17 15 17 17 19 20 19 19 20 15 14 17 13 14 16 17 11 18 19 18 19 19 17 18 20 21 22 24 26 27 29 30 29 30 30 31 32 32
18 20 17 13 6 17 12 17 17 20 19 16 17 17 18 16 14 14 15 15 16 20 20 19 20 15 16 14 13 15 14 16 15 14 14 17 22 21 18 19 18 16 19 22 26 28 28 30 30 31 32 32 33 33
5 7 6 11 15 5 10 13 15 15 14 16 16 17 14 14 16 16 17 16 15 19 20 22 21 17 15 16 16 15 15 15 15 14 15 15 12 13 13 13 16 19 22 25 27 29 31 32 33 33 34 35 35 34
8 6 5 10 14 14 13 10 17 19 15 16 16 16 15 16 16 17 17 18 18 17 12 17 18 17 14 16 15 13 15 15 15 14 14 15 14 16 16 19 21 24 28 31 33 35 36 36 35 36 37 36 35 35
7 7 3 10 8 3 11 20 27 18 17 15 14 16 15 15 17 17 17 17 17 16 12 13 13 16 14 16 17 16 15 17 16 17 16 14 17 20 23 26 29 33 35 37 38 38 40 41 39 38 39 37 35 32
10 7 3 4 12 7 17 25 21 18 16 16 13 13 16 17 18 15 16 16 10 9 9 13 9 13 13 13 16 16 17 15 17 17 15 18 23 27 29 31 35 37 39 41 40 40 41 41 39 35 36 33 32 26
4 6 1 1 0 13 15 18 20 18 16 15 16 15 16 17 14 13 13 13 13 11 11 13 12 15 12 13 16 15 13 16 14 16 20 25 29 32 34 34 35 35 34 34 35 37 36 35 35 30 29 28 19 16
2 7 18 18 13 14 14 21 18 16 17 16 16 16 17 16 17 16 13 13 8 10 13 14 15 14 15 14 15 16 16 15 16 21 25 27 31 33 32 29 30 28 29 30 33 26 0 11 18 1 16 18 18 21
20 23 31 30 19 25 28 17 18 17 17 17 17 17 14 14 12 14 11 13 14 14 17 15 15 15 17 16 17 18 18 19 22 26 26 25 28 28 25 23 22 25 26 26 25 27 25 23 21 21 21 19 17 15
28 33 34 33 30 25 19 18 16 17 17 19 18 18 17 18 13 11 11 13 15 15 16 17 17 16 17 18 17 19 21 22 24 23 24 25 23 22 20 19 20 16 16 5 13 26 24 19 19 18 13 16 18 12
29 34 35 24 17 18 19 20 16 16 17 14 18 18 17 14 16 16 15 14 13 15 15 18 18 18 17 16 18 20 21 22 23 23 22 21 20 19 20 20 11 23 18 14 12 22 22 24 24 20 20 18 18 14
30 30 25 17 13 17 18 19 19 18 17 16 18 16 14 14 16 17 17 17 17 17 17 19 18 17 18 19 21 22 22 22 22 20 18 19 20 15 10 21 23 24 25 25 25 16 22 17 17 18 16 14 15 11
24 22 20 16 16 17 17 18 19 17 17 18 17 17 19 19 19 20 21 20 22 21 21 17 17 18 18 20 18 20 21 21 21 18 16 18 20 21 22 22 24 24 24 25 25 26 19 26 22 20 17 16 13 14
17 21 16 16 17 16 18 17 18 16 18 19 19 19 20 21 21 19 18 21 22 23 22 22 20 19 19 18 18 18 18 19 19 17 17 18 19 21 22 23 26 26 22 22 18 21 28 25 24 25 20 16 16 15
19 17 18 18 19 18 19 17 20 19 20 20 21 21 20 19 17 14 18 18 19 20 21 22 21 19 19 19 18 18 17 17 17 16 15 15 13 12 23 13 13 9 20 26 28 25 25 25 23 20 20 18 15 12
19 19 19 19 19 19 19 21 20 20 20 22 21 21 20 19 16 17 20 19 17 16 17 17 17 16 15 15 14 15 14 14 13 13 15 17 13 8 6 5 3 18 21 21 24 26 28 28 27 25 24 22 21 22
18 19 21 22 22 22 24 24 21 19 20 24 23 21 23 23 20 18 16 14 13 13 19 18 15 15 14 14 13 12 12 12 18 18 20 11 22 24 22 24 27 28 28 23 23 24 24 25 25 25 26 25 25 23
16 17 17 23 26 24 23 21 25 23 23 24 23 24 24 21 17 15 15 18 17 17 17 15 12 10 10 13 6 4 12 20 20 20 22 4 2 22 24 20 20 23 27 28 30 32 31 31 29 27 23 21 19 19
14 11 16 17 18 24 20 19 21 18 13 13 18 19 13 13 10 9 7 4 5 12 13 11 9 11 16 18 14 18 14 10 16 23 25 28 29 28 28 29 29 30 32 32 33 35 35 35 33 30 29 28 28 28
17 13 4 4 3 4 12 9 8 5 3 4 10 7 13 16 17 16 12 7 7 7 7 8 8 13 21 19 20 23 25 26 27 28 30 30 29 29 31 33 34 37 36 36 37 36 34 33 33 32 32 31 32 31
4 11 4 13 10 2 11 15 17 20 21 22 20 18 21 3 10 5 10 11 6 9 10 12 16 19 21 23 26 27 27 29 30 32 33 33 32 33 34 34 34 36 35 34 34 35 36 37 35 33 33 33 31 30
13 14 9 2 1 4 5 3 21 15 24 26 29 30 26 15 6 3 7 5 5 11 16 14 24 26 26 26 28 30 30 31 32 33 34 33 33 34 34 35 36 36 34 34 35 35 36 36 36 34 34 33 34 37
25 23 23 20 17 17 10 9 10 16 21 21 24 23 25 25 25 23 22 13 19 25 27 25 28 30 31 32 33 33 35 33 30 29 31 32 33 34 35 36 35 32 34 35 35 35 37 37 37 36 37 36 37 38
14 6 6 9 9 10 14 11 10 12 15 15 12 21 19 18 21 23 25 27 28 25 24 28 32 33 33 35 35 36 35 33 33 33 33 32 33 34 33 33 30 33 35 34 35 36 38 39 38 38 37 37 38 38
19 11 9 13 12 10 11 17 16 13 11 11 12 19 17 19 21 21 21 29 31 32 29 29 32 33 35 37 38 37 36 35 32 30 29 28 27 29 31 30 31 33 33 35 36 36 37 39 38 39 37 36 36 37
Wind_Direction
305 305 304 304 304 305 302 300 295 292 289 287 285 286 287 290 294 291 275 280 283 271 267 277 276 268 266 264 260 283 266 263 256 249 246 246 251 252 256 260 262 266 267 271 275 273 275 279 288 267 299 296 313 306
307 304 302 300 300 302 302 298 294 288 284 281 280 282 285 287 289 291 276 285 283 269 267 276 273 269 263 263 264 269 269 277 271 256 254 252 250 255 264 258 268 269 268 265 279 284 296 308 272 316 304 314 311 311
305 303 300 297 297 300 298 295 290 283 283 278 277 279 281 281 282 284 277 274 277 267 268 262 267 270 274 269 269 257 270 271 268 274 268 260 255 266 260 277 261 275 294 280 276 271 281 285 295 298 301 306 308 313
308 300 296 296 296 294 292 289 285 279 285 278 277 277 277 277 278 278 272 275 272 270 266 273 291 283 278 270 268 262 265 272 268 265 263 261 259 275 262 283 283 255 285 275 284 298 268 288 301 307 305 306 312 310
308 303 297 296 293 287 285 284 278 270 277 275 276 274 275 274 274 273 267 266 267 265 265 267 278 298 291 276 272 266 266 269 266 260 260 260 267 268 264 266 263 315 290 296 297 284 300 349 327 316 308 310 313 312
313 313 302 297 291 281 277 274 273 267 270 275 271 272 272 271 272 270 269 266 266 274 264 267 284 281 286 289 273 267 268 268 264 266 262 265 279 270 263 263 281 304 312 312 305 312 311 314 325 327 311 309 312 312
323 321 258 312 285 279 270 270 266 263 264 269 266 267 267 265 262 262 261 267 270 264 258 262 274 280 273 280 290 278 270 269 272 267 264 265 273 272 269 263 274 297 304 301 304 304 299 305 303 307 307 306 307 306
296 298 257 310 288 298 267 263 260 255 262 262 258 260 260 258 255 256 261 249 253 259 258 259 265 277 273 270 281 287 282 276 274 275 281 279 281 282 275 282 280 288 296 300 304 307 305 304 304 304 306 307 306 305
323 293 315 325 318 302 276 271 261 254 257 261 257 254 254 255 259 265 264 267 259 253 259 255 260 270 270 266 284 279 282 277 298 275 276 282 278 280 294 295 297 301 302 300 305 308 310 308 308 310 310 311 311 312
186 190 173 151 344 280 286 264 261 252 251 257 251 249 249 254 265 264 262 262 263 249 252 255 261 277 265 269 274 277 279 279 290 293 293 286 283 292 299 305 303 319 321 319 312 310 311 309 309 309 309 310 309 308
14 113 96 122 141 93 283 260 249 242 244 240 246 250 257 254 249 255 253 255 261 255 253 247 259 271 264 269 278 279 282 288 285 291 292 297 310 321 338 331 330 325 319 317 315 313 312 310 308 308 307 306 306 306
350 1 30 90 111 114 252 243 230 222 238 245 254 249 249 252 254 251 250 251 255 261 271 254 257 259 277 267 278 285 282 285 283 309 300 296 321 327 328 324 322 321 317 313 312 308 307 306 306 305 304 303 302 304
11 353 61 89 74 10 243 219 205 229 241 245 252 249 251 252 249 249 249 253 258 261 270 266 271 261 282 262 270 282 282 281 296 294 295 310 317 321 318 314 311 311 312 311 310 309 305 302 301 301 301 300 299 300
280 69 17 44 230 183 217 198 208 219 225 223 243 244 247 246 243 246 254 261 270 283 273 266 275 277 279 274 275 278 284 292 290 289 298 320 316 310 310 311 312 313 313 311 311 309 306 302 300 300 301 301 297 295
247 228 11 9 98 215 207 205 206 221 229 234 236 243 245 240 250 261 271 270 273 286 283 269 273 270 271 281 277 288 293 291 298 307 313 314 312 308 306 309 313 317 320 323 327 322 319 314 303 301 304 312 318 316
92 192 186 191 201 202 204 197 209 223 229 232 238 234 237 241 247 256 264 267 288 269 260 266 270 276 273 285 279 281 289 298 307 305 303 312 315 315 316 321 311 322 323 312 318 298 20 246 244 251 330 323 322 311
165 168 149 156 188 179 176 206 212 222 225 224 225 225 246 251 264 260 267 256 261 257 259 270 268 272 272 278 275 274 292 301 296 295 301 320 316 321 322 318 338 346 332 340 341 346 348 350 332 310 333 330 339 334
138 137 134 142 157 173 195 207 221 223 222 215 219 224 223 216 248 269 274 271 273 265 261 264 268 267 270 271 277 280 289 292 297 306 304 306 301 315 320 311 310 14 46 202 41 1 340 40 46 28 55 1 336 21
136 132 134 157 181 185 185 188 205 212 221 244 222 222 233 243 237 234 240 245 257 258 262 258 255 258 266 274 278 279 284 291 299 291 302 284 266 263 284 285 234 339 22 43 322 7 10 351 351 7 357 0 4 22
134 137 151 173 197 182 181 185 193 196 205 219 219 239 257 259 250 248 247 241 244 248 247 242 249 258 263 271 273 270 270 277 268 261 261 281 288 294 190 294 327 335 337 340 334 352 2 24 25 15 19 21 19 26
142 150 158 170 172 178 179 184 178 195 200 196 216 219 207 212 210 218 221 233 214 217 223 240 248 249 252 248 247 248 249 248 233 206 205 246 288 297 296 296 312 333 346 347 341 332 5 341 355 8 16 16 18 19
155 155 164 166 156 163 166 171 166 176 169 173 176 180 176 174 176 188 213 198 198 201 211 219 220 233 238 249 249 253 242 228 225 208 218 235 264 266 282 272 301 313 351 358 4 351 323 341 350 344 353 6 7 8
142 145 142 136 138 142 146 159 150 151 151 157 163 160 158 166 177 200 180 191 200 205 202 210 221 227 226 233 244 231 236 223 226 210 196 207 197 197 293 235 32 44 356 340 336 346 343 345 356 2 359 2 3 5
134 139 134 129 139 141 143 139 150 150 156 147 152 152 155 163 175 169 157 167 184 193 192 191 185 176 189 184 205 212 198 141 188 184 211 241 218 193 159 179 149 7 358 1 353 342 336 336 337 345 345 347 346 344
119 129 133 120 123 135 130 124 143 144 144 144 144 143 143 142 142 147 158 170 176 174 154 149 173 190 184 179 196 186 190 210 285 278 320 217 283 293 280 287 305 320 331 356 355 353 351 348 347 346 344 343 341 341
121 117 116 110 130 125 127 126 127 131 134 134 143 138 137 136 139 147 149 146 150 151 156 164 186 259 250 152 190 184 279 321 320 308 319 144 20 0 350 5 6 356 344 340 334 331 330 334 337 338 342 343 343 342
115 119 117 120 126 117 130 138 135 140 162 159 153 152 173 165 170 176 180 229 225 142 152 167 147 310 334 340 25 42 68 330 34 348 324 324 319 343 349 338 342 341 334 334 334 331 329 329 332 334 333 332 331 331
118 124 46 69 70 27 20 16 12 9 7 11 27 9 173 160 154 159 169 215 234 247 252 250 252 312 357 323 320 325 327 318 335 335 330 333 336 336 333 330 328 325 328 328 328 330 332 332 331 329 327 326 325 325
72 4 1 8 0 331 5 15 23 30 38 42 40 39 48 166 170 206 166 148 284 301 303 301 313 320 320 325 335 330 319 334 338 332 329 331 336 336 336 337 337 336 336 336 336 335 334 333 333 332 329 328 329 327
95 101 11 316 323 358 347 346 40 18 58 74 82 91 69 31 180 250 305 215 247 317 323 301 343 342 332 326 326 327 334 339 339 339 336 343 342 341 342 340 339 339 341 340 339 338 337 336 335 335 334 337 337 334
81 87 94 109 125 130 154 163 163 147 133 135 113 63 78 70 51 23 15 324 329 348 7 336 349 348 344 340 330 325 337 352 358 359 353 349 347 345 342 342 343 344 343 341 341 340 339 338 336 335 333 336 336 335
104 224 217 173 181 178 147 174 189 181 0 145 178 85 101 91 54 46 31 21 18 31 31 16 355 341 351 348 348 345 348 352 351 350 351 351 349 347 348 347 349 347 345 344 343 342 340 338 337 335 335 335 334 333
76 130 162 141 153 191 186 113 114 165 245 231 136 52 66 42 28 41 41 7 357 348 8 7 2 2 355 349 347 350 349 350 354 359 359 359 360 357 354 353 350 348 346 345 344 343 342 340 338 337 339 338 338 338